This is the latest recevied weather packets stored in our database for station/object W4WYD-2. If no packets are shown the sender has not sent any weather packets the latest 10 day(s).
| Time | Temp. | Humidity | Pressure | Rain* | Wind** | Luminosity | Snow |
|---|---|---|---|---|---|---|---|
| 1787409087 | 26.11° C | 78% | 1017.1 hPa | 0 mm | - | 97 W/m² | - |
| 1787408783 | 25.56° C | 81% | 1017 hPa | 0 mm | - | 92 W/m² | - |
| 1787408478 | 25.56° C | 83% | 1017 hPa | 0 mm | - | 114 W/m² | - |
| 1787408173 | 25° C | 85% | 1017.1 hPa | 0 mm | - | 103 W/m² | - |
| 1787407868 | 25° C | 83% | 1017.2 hPa | 0 mm | - | 137 W/m² | - |
| 1787407564 | 25° C | 85% | 1017.1 hPa | 0 mm | - | 88 W/m² | - |
| 1787407258 | 24.44° C | 88% | 1017 hPa | 0 mm | - | 152 W/m² | - |
| 1787406954 | 23.89° C | 88% | 1017.1 hPa | 0 mm | - | 81 W/m² | - |
| 1787406650 | 23.33° C | 95% | 1017 hPa | 0 mm | - | 74 W/m² | - |
| 1787406345 | 23.33° C | 99% | 1017.1 hPa | 0 mm | - | 132 W/m² | - |
| 1787406042 | 22.78° C | 99% | 1017.1 hPa | 0 mm | - | 94 W/m² | - |
| 1787405738 | 22.22° C | 99% | 1017.2 hPa | 0 mm | - | 78 W/m² | - |
| 1787405434 | 22.22° C | 99% | 1017 hPa | 0 mm | - | 71 W/m² | - |
| 1787405128 | 21.67° C | 99% | 1017.2 hPa | 0 mm | - | 62 W/m² | - |
| 1787404825 | 21.67° C | 99% | 1016.8 hPa | 0 mm | - | 69 W/m² | - |
| 1787404520 | 21.11° C | 99% | 1016.9 hPa | 0 mm | - | 53 W/m² | - |
| 1787404219 | 21.11° C | 99% | 1016.8 hPa | 0 mm | - | 51 W/m² | - |
| 1787403914 | 20.56° C | 99% | 1017 hPa | 0 mm | - | 50 W/m² | - |
| 1787403610 | 20.56° C | 99% | 1016.9 hPa | 0 mm | - | 47 W/m² | - |
| 1787403304 | 20.56° C | 99% | 1017 hPa | 0 mm | - | 46 W/m² | - |
| 1787403001 | 20.56° C | 99% | 1016.9 hPa | 0 mm | - | 44 W/m² | - |
| 1787402697 | 20° C | 99% | 1016.7 hPa | 0 mm | - | 42 W/m² | - |
| 1787402395 | 19.44° C | 99% | 1016.6 hPa | 0 mm | - | 40 W/m² | - |
| 1787402091 | 19.44° C | 99% | 1016.6 hPa | 0 mm | - | 38 W/m² | - |
| 1787401785 | 19.44° C | 99% | 1016.6 hPa | 0 mm | - | 36 W/m² | - |
* Rain latest hour (hover to see other rain measurements)
** Current wind speed in m/s (hover to see current wind gust speed)